Location: Fort Worth, Tx
(32.7431°N, 97.3695°W)
Time: 16:41:06
(UTC-04:00)

Vanguard 1 Rocket - All Passes

Search period start: 07 October 2024 00:00
Search period end: 17 October 2024 00:00
Orbit: 650 x 4218 km, 34.3° (Epoch: 06 October)

Date Brightness Start Highest point End Pass type
(mag) Time Alt. Az. Time Alt. Az. Time Alt. Az.
07 Oct - 01:31:55 10° W 01:36:59 89° N 01:45:45 10° E night (unlit)
07 Oct - 03:55:55 10° W 04:03:09 88° NNE 04:17:53 10° ESE visible
07 Oct - 06:20:28 10° W 06:30:56 56° SSW 06:50:52 10° SE visible
07 Oct - 08:48:26 10° W 09:00:44 26° SW 09:18:11 10° S daylight
07 Oct - 22:00:09 10° SSE 22:01:05 11° SE 22:02:00 10° SE visible
08 Oct - 00:20:35 10° WSW 00:25:02 66° SSE 00:31:35 10° ENE night (unlit)
08 Oct - 02:44:29 10° W 02:50:24 80° N 03:01:42 10° E visible
08 Oct - 05:08:35 10° WNW 05:17:13 70° SSW 05:34:42 10° ESE visible
08 Oct - 07:34:25 10° W 07:45:58 36° SSW 08:04:55 10° SSE visible
08 Oct - 10:12:25 10° SW 10:16:42 11° SW 10:21:20 10° SSW daylight
08 Oct - 23:09:26 10° SW 23:13:26 35° SSE 23:18:10 10° E visible
09 Oct - 01:33:03 10° W 01:38:02 81° N 01:46:31 10° E night (unlit)
09 Oct - 03:57:02 10° WNW 04:04:05 84° SSW 04:18:20 10° ESE visible
09 Oct - 06:21:42 10° W 06:31:42 47° SSW 06:50:10 10° SE visible
09 Oct - 08:51:13 10° WSW 09:01:29 19° SW 09:15:11 10° S daylight
09 Oct - 21:58:52 10° S 22:01:52 17° SSE 22:04:49 10° ESE visible
10 Oct - 00:21:34 10° WSW 00:26:01 81° SSE 00:32:26 10° ENE night (unlit)
10 Oct - 02:45:37 10° W 02:51:25 83° N 03:02:23 10° E visible
10 Oct - 05:09:43 10° W 05:18:03 60° SSW 05:34:34 10° SE visible
10 Oct - 07:36:13 10° W 07:46:44 28° SSW 08:03:06 10° SSE visible
10 Oct - 23:10:06 10° SW 23:14:19 49° SSE 23:19:14 10° E visible
11 Oct - 01:34:11 10° W 01:39:06 77° N 01:47:19 10° E night (unlit)
11 Oct - 03:58:08 10° WNW 04:05:00 75° SSW 04:18:40 10° ESE visible
11 Oct - 06:23:06 10° W 06:32:31 37° SSW 06:49:07 10° SSE visible
11 Oct - 08:55:46 10° WSW 09:02:24 13° SW 09:10:19 10° SSW daylight
11 Oct - 21:58:48 10° SSW 22:02:44 26° SSE 22:06:26 10° E visible
12 Oct - 00:22:38 10° W 00:27:04 86° N 00:33:17 10° E night (unlit)
12 Oct - 02:46:44 10° W 02:52:24 89° N 03:03:02 10° ESE visible
12 Oct - 05:10:56 10° W 05:18:55 49° SSW 05:34:10 10° SE visible
12 Oct - 07:38:36 10° WSW 07:47:38 21° SSW 08:00:35 10° S visible
12 Oct - 20:48:14 10° S 20:50:53 14° SSE 20:53:13 10° ESE visible
12 Oct - 23:10:55 10° WSW 23:15:17 66° SSE 23:20:14 10° E visible
13 Oct - 01:35:19 10° W 01:40:09 78° N 01:48:07 10° E night (unlit)
13 Oct - 03:59:15 10° W 04:05:54 63° SSW 04:18:50 10° ESE visible
13 Oct - 06:24:46 10° W 06:33:25 29° SSW 06:47:40 10° SSE visible
13 Oct - 21:59:08 10° SW 22:03:38 37° SSE 22:07:44 10° E visible
14 Oct - 00:23:43 10° W 00:28:07 78° N 00:34:10 10° E night (unlit)
14 Oct - 02:47:50 10° W 02:53:23 81° SSW 03:03:36 10° ESE visible
14 Oct - 05:12:16 10° W 05:19:50 39° SSW 05:33:30 10° SE visible
14 Oct - 07:42:13 10° WSW 07:48:37 14° SSW 07:56:45 10° S visible
14 Oct - 20:47:30 10° SSW 20:51:49 22° SSE 20:55:19 10° ESE visible
14 Oct - 23:11:51 10° WSW 23:16:18 84° SSE 23:21:11 10° E visible
15 Oct - 01:36:25 10° W 01:41:11 82° N 01:48:55 10° E night (unlit)
15 Oct - 04:00:26 10° W 04:06:49 51° SSW 04:18:47 10° SE visible
15 Oct - 06:26:54 10° WSW 06:34:24 21° SSW 06:45:38 10° SSE visible
15 Oct - 19:36:41 10° S 19:39:38 13° SSE 19:42:07 10° SE daylight
15 Oct - 21:59:42 10° WSW 22:04:36 53° SSE 22:08:52 10° E visible
16 Oct - 00:24:49 10° W 00:29:11 74° N 00:35:04 10° E night (unlit)
16 Oct - 02:48:56 10° W 02:54:20 68° SSW 03:04:03 10° ESE visible
16 Oct - 05:13:50 10° W 05:20:48 29° SSW 05:32:27 10° SSE visible
16 Oct - 20:47:25 10° SW 20:52:48 32° SSE 20:56:49 10° E visible
16 Oct - 23:12:50 10° W 23:17:20 83° N 23:22:08 10° E visible
